Helicity
180 159 158 135 103 53 10 52 63 18 161 59 83 100 93 140 82 103 100 127 151 166 98 78 96 88 93 61 27 -18 29 12 14 3 57 28 -13 -46 -67 -73 -102 -117 -115 -80
176 79 83 95 36 16 -1 16 4 46 73 60 43 21 86 130 89 147 116 117 151 190 207 133 52 36 59 12 -20 33 75 40 25 -52 -57 -46 31 -20 -72 -101 -143 -136 -97 -53
190 95 70 103 21 13 8 49 32 104 12 -6 45 80 84 64 65 98 71 83 139 248 277 212 142 55 44 -26 -98 -52 -62 -78 -93 -93 -100 -61 -68 -136 -175 -163 -141 -116 -83 -31
164 -38 35 71 30 31 -9 2 45 30 66 39 37 -8 14 28 58 62 102 164 181 252 241 228 182 117 78 -7 -121 -102 -101 -85 -128 -138 -149 -154 -149 -159 -149 -138 -107 -90 -38 1
287 67 88 78 -10 33 34 8 34 52 36 39 -7 -9 -8 63 31 77 73 194 207 269 282 264 209 172 78 70 -4 -65 -58 -44 -74 -88 -78 -83 -100 -88 -77 -57 -50 -43 -23 24
111 38 69 71 10 4 27 47 57 80 74 -63 -39 -34 -107 -16 8 63 128 143 219 236 252 203 182 169 120 107 88 23 -14 -28 -24 -41 -43 -25 -5 -32 -35 -6 9 15 27 47
162 -11 16 34 96 53 16 107 84 52 48 -64 32 5 16 27 -7 88 184 189 300 222 287 257 173 167 157 169 156 104 63 27 13 19 26 35 34 19 32 56 56 104 101 87
234 138 98 88 36 111 91 99 121 45 8 32 44 -45 -9 10 38 5 188 253 341 293 262 258 264 250 212 178 176 160 130 95 85 90 92 82 52 30 2 27 57 75 124 147
181 173 145 78 129 90 101 151 104 156 121 31 4 24 -7 8 35 -3 13 172 285 295 269 207 218 258 270 228 206 193 193 165 142 139 93 72 49 48 57 112 164 232 240 230
163 159 33 146 120 99 84 117 188 143 67 26 28 33 5 23 -0 11 55 99 192 274 257 230 234 248 302 338 288 264 226 218 242 230 178 138 133 130 138 169 200 224 315 333
95 156 185 128 152 106 93 123 164 157 172 84 73 50 -2 10 32 29 96 72 102 191 303 245 255 242 295 339 340 319 283 250 236 212 202 175 167 175 234 283 306 368 322 265
116 123 115 119 180 142 65 62 148 152 110 114 58 49 12 22 58 94 84 102 97 93 93 130 231 258 292 365 376 366 337 304 251 262 235 200 192 169 337 369 391 332 209 226
138 125 134 84 72 95 81 86 137 197 192 130 121 39 41 -8 91 50 17 88 111 112 135 127 82 42 106 211 288 336 332 381 414 418 279 233 380 364 397 405 267 234 256 96
141 201 128 115 127 126 149 87 92 143 180 138 164 66 -7 12 23 28 -24 9 28 73 120 128 169 162 148 189 263 321 337 449 435 367 321 360 342 304 309 400 467 386 346 357
161 152 158 178 106 115 225 227 104 142 152 135 89 128 56 3 37 -18 3 31 60 88 100 106 217 248 277 236 243 329 408 514 479 409 425 380 271 245 283 366 430 411 401 367
125 146 176 124 106 13 137 251 103 78 77 94 118 123 67 59 20 -21 -59 92 33 112 147 168 262 303 318 294 309 337 378 429 500 500 427 382 392 397 362 358 365 376 367 372
180 162 138 81 92 142 61 54 76 102 82 58 118 50 33 44 -11 -18 13 68 130 205 260 256 279 331 312 354 389 374 371 351 336 360 366 401 435 447 392 363 360 326 352 374
173 206 117 70 110 89 54 -31 100 32 49 77 74 -11 11 28 14 20 88 144 189 281 256 212 250 359 405 430 416 443 403 365 354 361 357 383 406 388 360 335 314 330 334 307
55 58 90 130 176 118 148 117 74 88 68 106 97 24 56 64 108 118 71 113 181 222 217 228 284 367 432 454 443 424 387 356 346 361 404 392 366 352 313 294 290 304 336 349
91 99 116 160 124 108 -54 59 50 22 85 144 31 41 53 53 118 97 99 173 268 251 234 223 250 354 381 355 366 386 352 321 317 328 308 291 286 262 262 272 289 283 288 326
182 149 142 208 134 71 73 48 113 82 40 25 45 36 76 65 74 96 163 171 215 201 189 242 257 284 310 319 330 315 301 290 282 272 276 273 239 243 266 276 251 280 333 356
106 163 191 149 99 65 140 128 128 158 210 91 25 48 65 83 60 78 133 180 190 216 221 235 287 273 267 287 318 324 335 321 324 333 316 277 263 264 248 252 286 317 334 361
78 126 143 97 56 120 127 115 122 143 160 174 58 87 30 43 85 103 131 171 205 231 264 271 301 302 271 264 280 317 311 369 377 339 302 289 298 291 284 305 314 326 348 378
66 78 87 90 87 91 107 89 75 64 159 197 244 120 141 143 78 183 218 219 232 256 285 301 316 295 333 337 335 355 357 358 341 340 350 364 411 455 459 424 380 376 371 386
28 34 77 99 89 102 65 44 95 142 60 155 152 88 113 83 104 115 168 248 309 285 297 304 325 373 388 395 430 428 400 427 442 452 440 465 484 500 547 582 515 474 433 359
99 89 103 76 47 83 68 58 55 11 122 186 91 42 49 62 55 125 218 277 317 358 375 475 526 574 586 610 598 554 535 523 527 554 531 523 542 542 529 534 560 556 447 410
Wind_Speed
26 27 22 19 16 16 22 35 34 9 12 12 13 24 7 8 15 12 15 18 18 22 20 32 33 37 37 46 51 33 38 42 36 41 32 36 33 80 77 79 76 74 71 62
26 30 23 25 15 16 14 20 19 15 14 24 21 27 11 11 17 25 26 25 18 24 26 35 41 43 45 54 61 63 65 69 75 82 82 82 81 80 79 76 75 71 63 44
32 36 22 25 18 17 15 14 12 16 26 21 24 36 16 15 14 22 30 29 31 36 36 40 44 48 50 57 61 64 70 74 77 79 77 75 73 71 68 67 68 67 60 52
44 33 44 23 21 16 16 16 19 38 31 26 23 13 7 12 12 32 36 37 41 41 43 44 44 46 54 58 59 65 66 68 74 74 70 62 72 66 56 49 54 62 61 54
42 38 33 35 21 18 17 30 21 33 36 31 19 6 8 7 26 30 44 45 45 42 48 46 49 47 50 53 52 57 61 62 66 67 64 60 62 55 41 40 43 52 55 52
43 49 34 33 31 24 24 36 37 39 37 15 21 3 25 20 4 23 36 49 49 42 47 46 46 45 47 51 56 58 58 57 57 59 62 54 51 42 39 34 35 36 33 41
50 57 54 50 48 48 31 36 46 44 49 31 26 11 35 46 51 19 38 48 48 48 48 45 44 45 46 49 52 53 58 60 58 57 56 55 53 50 47 42 41 22 25 26
50 58 51 43 40 43 28 29 36 38 44 59 39 1 22 47 57 41 26 35 43 51 52 45 46 44 45 49 51 53 53 51 50 50 52 46 44 47 47 42 35 29 26 24
51 64 49 46 51 38 46 38 29 38 45 52 42 45 58 40 20 13 19 23 38 45 48 49 42 43 40 41 46 48 49 50 49 47 43 43 44 40 33 35 30 28 24 24
51 57 64 56 47 54 50 33 36 34 44 48 56 57 17 6 18 11 8 15 27 41 45 48 49 43 37 39 43 43 44 44 45 43 41 40 38 36 35 31 31 31 38 36
71 60 51 52 59 66 57 47 36 29 29 42 48 42 10 8 4 21 10 13 22 30 26 36 42 47 46 39 38 44 41 39 35 38 34 34 37 40 39 38 37 36 36 37
62 61 83 70 60 59 64 63 40 43 32 43 54 45 25 7 4 28 4 3 10 12 13 20 30 38 44 43 45 48 44 43 26 26 32 39 44 48 49 44 37 24 33 36
52 70 77 79 76 78 76 67 49 42 40 44 42 42 38 6 35 40 33 10 4 1 6 6 5 11 29 33 36 36 35 25 18 13 17 19 22 37 23 32 22 17 12 6
47 65 78 83 68 53 59 58 47 45 49 49 51 45 46 15 37 52 55 38 31 22 15 10 6 14 10 2 10 17 20 20 20 18 12 10 9 13 17 17 15 15 12 13
46 74 67 67 61 69 70 74 60 52 50 43 64 49 72 59 20 69 66 21 31 30 26 13 6 16 18 13 9 7 12 12 14 13 15 13 19 23 19 17 11 11 14 11
51 62 57 69 69 72 85 79 74 69 61 64 62 46 60 73 77 75 73 34 27 36 18 9 9 1 12 16 15 13 14 14 11 12 13 16 17 15 12 10 8 9 10 11
55 50 57 78 65 64 90 89 87 72 65 60 55 73 70 69 82 79 77 22 15 14 12 12 11 8 3 10 14 16 15 13 11 12 14 16 15 15 13 11 9 10 12 14
69 67 60 68 51 85 77 61 62 71 86 77 68 71 68 79 79 78 54 18 17 14 11 8 5 10 15 15 16 17 15 14 12 13 13 13 13 11 9 9 10 11 10 9
58 65 66 65 65 67 71 65 45 50 64 63 71 64 54 50 43 45 43 23 17 18 14 13 12 13 16 15 13 13 15 15 16 17 18 15 10 7 7 9 8 8 8 11
69 64 65 57 78 89 58 87 67 42 69 63 56 56 56 43 54 54 50 29 21 15 13 13 18 16 17 17 14 15 16 17 18 17 14 11 8 6 6 7 8 10 10 12
68 68 70 66 72 63 57 59 58 84 72 59 61 56 51 58 60 55 33 26 17 15 12 17 20 19 17 14 17 23 22 22 17 13 10 9 9 9 10 10 10 12 16 19
67 67 71 69 77 81 50 48 53 56 56 59 60 65 59 52 48 37 25 19 16 16 17 19 20 21 18 15 17 21 23 18 13 12 13 13 12 13 13 11 14 17 19 19
69 60 65 59 66 51 48 55 45 48 52 50 51 54 59 48 40 30 25 21 20 20 21 22 21 20 20 18 18 20 17 12 11 13 14 13 14 16 17 19 19 20 21 22
62 54 64 62 57 59 57 59 58 61 58 59 58 52 50 53 40 29 27 25 22 22 23 20 20 22 21 20 21 19 16 14 15 17 19 20 20 21 24 27 27 25 27 29
78 59 63 64 56 53 60 55 68 74 67 67 66 59 55 44 44 37 31 29 26 24 23 22 22 23 24 21 19 18 16 15 19 21 23 24 24 22 24 29 32 33 37 36
62 66 71 73 62 58 61 46 42 62 64 59 61 56 48 44 45 35 30 25 24 24 23 24 24 24 26 24 24 23 20 17 18 23 24 24 24 27 28 29 35 39 38 40
Wind_Direction
286 277 240 246 226 285 313 318 327 331 279 39 0 339 58 103 137 100 99 111 109 122 109 136 127 134 121 136 139 121 127 132 134 142 145 146 148 169 169 173 171 171 171 169
275 235 258 280 268 269 265 300 232 308 324 1 8 344 33 118 144 148 150 142 117 117 116 137 145 144 137 150 158 158 155 156 158 162 162 173 175 177 177 177 179 178 174 163
248 293 265 262 236 254 246 271 255 303 340 351 343 327 12 143 133 145 166 155 144 150 138 141 145 149 146 153 156 155 157 158 159 166 165 171 165 171 169 172 180 183 180 179
273 248 283 277 253 241 265 299 310 318 331 340 358 204 86 143 158 180 166 158 162 156 154 150 145 145 155 156 155 159 154 156 164 170 163 159 171 171 167 168 175 185 188 188
269 269 257 259 232 260 267 301 312 317 320 335 343 1 20 74 196 174 173 167 167 159 158 152 155 150 152 151 150 155 158 160 166 169 166 167 174 173 167 171 179 187 190 191
265 271 270 255 260 265 280 295 303 310 317 302 340 319 208 200 102 157 171 174 171 163 164 162 156 151 152 156 160 163 166 168 169 173 178 176 176 175 177 179 183 188 189 192
264 264 266 269 267 270 274 280 284 294 290 212 338 7 198 225 223 156 162 172 172 170 166 166 165 163 162 163 166 169 174 178 179 181 182 185 187 187 188 188 189 200 197 198
253 263 254 258 246 264 264 266 272 291 292 285 309 68 172 259 240 185 163 173 171 171 173 170 172 173 174 173 174 176 179 181 182 184 188 188 190 193 196 195 197 205 213 220
256 258 267 254 253 256 267 261 270 283 287 288 299 302 247 303 337 118 136 162 173 176 176 178 179 178 178 178 181 183 185 187 189 192 194 197 199 203 209 212 220 220 240 256
266 262 255 255 260 262 263 264 268 277 275 282 276 266 154 282 111 72 44 131 160 171 179 184 185 185 185 188 188 187 189 193 196 199 202 207 212 220 228 253 242 251 273 275
250 259 261 254 251 252 255 257 267 268 273 275 283 285 336 133 171 138 77 106 148 169 181 186 191 193 196 197 196 197 198 202 206 205 213 226 233 238 248 255 265 275 282 278
244 259 250 253 260 259 259 258 247 258 267 267 273 276 316 123 325 293 304 106 102 107 133 172 188 192 197 199 202 203 207 213 242 272 284 288 287 278 273 264 265 270 300 281
241 249 249 250 256 250 255 257 248 253 262 263 268 279 283 162 271 286 167 156 176 115 11 43 57 167 190 195 200 205 213 231 248 283 284 283 265 274 291 257 229 228 281 289
240 248 246 246 259 252 262 256 246 251 250 262 266 276 237 268 253 260 193 181 174 172 161 145 11 355 342 267 216 215 228 226 220 218 221 288 286 270 255 245 247 276 288 282
249 248 252 255 262 251 262 254 255 247 253 256 260 265 259 237 282 231 232 176 185 180 179 172 311 317 325 335 337 284 289 273 234 251 295 304 318 322 318 314 309 309 308 304
264 255 254 256 261 251 254 257 254 259 263 264 263 266 262 260 250 229 223 283 198 193 193 216 279 298 327 321 321 314 307 306 288 283 297 316 325 329 334 344 339 327 320 312
264 261 255 254 259 251 252 246 249 259 260 267 263 255 260 261 243 234 244 222 253 225 246 242 254 239 233 329 325 307 306 316 314 314 317 319 322 320 320 325 317 316 316 314
262 259 262 259 261 249 254 266 260 257 252 258 263 262 262 252 255 259 272 248 256 237 228 252 266 295 305 317 320 318 316 316 319 319 317 318 316 311 308 310 311 316 319 322
260 257 257 253 254 264 256 256 258 255 259 257 260 260 266 274 279 280 280 273 227 223 246 274 296 302 310 313 316 315 313 312 313 312 312 312 313 316 318 315 316 324 330 330
254 261 251 264 254 253 264 242 255 275 262 256 270 267 270 280 276 278 279 276 265 256 267 285 303 311 309 306 307 305 304 304 305 309 314 320 325 330 333 336 331 332 335 335
254 255 252 256 257 266 267 259 260 256 263 262 272 276 278 275 278 282 279 272 258 264 275 297 303 306 308 306 306 305 307 307 313 321 328 333 331 331 333 336 334 331 330 329
255 253 252 257 257 257 279 278 262 274 275 275 276 270 276 280 287 284 265 256 252 272 288 296 303 308 313 316 312 312 310 316 322 326 324 325 329 328 325 324 324 324 323 323
254 255 254 256 263 274 282 273 281 280 283 286 289 284 277 281 281 274 263 258 262 273 293 302 305 312 318 323 322 320 322 326 327 325 319 322 323 320 317 314 315 318 317 317
257 261 262 266 271 273 277 276 277 275 281 281 286 294 290 286 284 274 270 272 274 283 290 300 305 306 315 320 322 325 323 324 320 317 315 317 317 319 320 318 317 316 313 313
251 264 263 266 271 281 278 285 271 271 271 274 277 285 289 292 289 282 277 274 271 283 289 294 299 306 313 322 325 323 321 322 318 319 318 318 320 323 325 327 322 320 320 317
259 260 261 262 275 278 275 285 284 279 267 276 280 282 290 290 291 292 287 279 279 279 288 299 305 309 316 323 323 327 328 322 318 319 321 320 318 319 320 321 321 330 328 326